Location: Boiro
(42.6475°N, 8.8834°W)
Time: 18:44:00
(UTC+01:00)

Tiros 1 despin weight - Pass Details

Date: 03 December 2021
Orbit: 592 x 641 km, 48.2° (Epoch: 20 January)

Event Time Altitude Azimuth Distance (km) Brightness Sun altitude
Rises 16:02:35 0° 257° (WSW) 2,829 ? 15.7°
Reaches altitude 10° 16:04:54 10° 261° (W) 1,924 ? 15.5°
Maximum altitude 16:09:15 59° 341° (NNW) 688 ? 15.0°
Drops below altitude 10° 16:13:36 10° 62° (ENE) 1,923 ? 14.5°
Sets 16:15:55 0° 66° (ENE) 2,827 ? 14.2°
